Regional Weather Roundup
Issued by NWS Wakefield, VA

Home | Current Version | Previous Version | Text Only | Print | Product List | Glossary Off
Versions: 1 2 3 4 5 6 7 8 9 10 11 12 13 14 15 16 17 18 19 20 21 22 23 24 25 26 27 28 29 30 31 32 33 34 35 36 37 38 39 40 41 42 43 44 45 46 47 48 49 50

528
ASUS41 KAKQ 200615
RWRAKQ

REGIONAL WEATHER ROUNDUP
NATIONAL WEATHER SERVICE WAKEFIELD VA
200 AM EDT SUN AUG 20 2017

Note: "fair" indicates few or no clouds below 12,000 feet with no
significant weather and/or obstructions to visibility. * = Denotes
station may not report precipitation (e.g., rain,snow,etc.),
thunder or fog.

VAZ042-051-052>054-056-200700-
NORTHERN VIRGINIA

CITY           SKY/WX    TMP DP  RH WIND       PRES   REMARKS
WASH NATIONAL  PTCLDY    74  62  66 NW6       30.00S
DULLES         PTCLDY    68  66  93 NW5       30.01R
FORT BELVOIR   MOCLDY    69  67  93 CALM      30.00S
QUANTICO       PTCLDY    73  69  87 NW6       30.01R
FREDERICKSBRG* MOCLDY    73  66  79 CALM      29.99R
STAFFORD*      PTCLDY    67  67 100 NW5       30.05R
WARRENTON      PTCLDY    67  64  90 CALM      30.01R
CULPEPER*      CLEAR     67  66  95 CALM      30.02R
MANASSAS*      PTCLDY    68  67  96 CALM      30.01S
LEESBURG*      CLEAR     66  66 100 NW3       30.03S
WINCHESTER     CLEAR     61  59  94 CALM      30.03S
FRONT ROYAL*   PTCLDY    63  63 100 CALM      30.03S
LURAY*         CLEAR     64  64 100 CALM      30.04S
$$

VAZ048-049-060>072-079>083-200700-
CENTRAL AND SOUTH CENTRAL VIRGINIA

CITY           SKY/WX    TMP DP  RH WIND       PRES   REMARKS
RICHMOND       CLEAR     74  72  93 S3        29.98S
CHESTERFIELD*  FAIR      71  70  96 CALM      29.99F
PETERSBURG*    PTCLDY    68  68 100 CALM      30.00S
HANOVER        CLEAR     70  68  93 CALM      30.00R
TAPPAHANNOCK*  CLEAR    N/A N/A N/A CALM      30.00S
QUINTON*       FAIR      71  71 100 SW6       29.98S
CHARLOTTSVILLE CLEAR     71  67  87 N3        30.01S
GORDONSVILLE*  CLEAR     68  67  98 CALM      30.01S
ORANGE*        CLEAR     64  63  94 CALM      30.01S
LOUISA*        CLEAR     66  64  94 CALM      30.01R
BUMPASS*       FAIR      69  69 100 CALM      30.00S
FARMVILLE*     CLEAR     70  69  96 CALM      29.99S
CREWE*         FAIR      68  64  86 CALM      30.00S
FORT PICKETT*  FAIR     N/A N/A N/A SW5       30.00S
CHASE CITY*    FAIR      69  69  99 CALM      30.01S
CLARKSVILLE*   FAIR      68  68 100 CALM      30.01R
SOUTH HILL*    CLEAR     68  68 100 CALM      30.07S
LAWRENCEVILLE* FAIR      71  70  97 CALM      30.00S
EMPORIA*       FOG       68  68 100 CALM      30.01S VSB 1/4
$$

VAZ088>098-200700-
SOUTHEAST VIRGINIA

CITY           SKY/WX    TMP DP  RH WIND       PRES   REMARKS
NORFOLK        CLEAR     77  74  90 CALM      29.98R
VIRGINIA BEACH CLEAR     75  71  87 S3        29.98R
NORFOLK NAVAL  CLEAR     75  72  90 CALM      29.99S
WEST POINT*    CLEAR     72  71  95 CALM      29.99S
SALUDA*        FAIR      73  71  93 SW3       29.98S
NEWPORT NEWS   CLEAR     71  69  93 CALM      29.98S
LANGLEY AFB    CLEAR     73  72  96 CALM      29.98R
FORT EUSTIS    CLEAR     75  70  86 CALM      29.96S
WILLIAMSBURG*  CLEAR     75  73  94 CALM      30.00S
HR EXEC AP*    FAIR      68  64  88 CALM      29.97S
FRANKLIN*      CLEAR     71  70  96 CALM      29.99S
US460-WAKEFLD  CLEAR     72  72 100 CALM      29.99S FOG
$$

VAZ020-022-025-037-045-200700-
WEST CENTRAL AND SOUTHWEST VIRGINIA

CITY           SKY/WX    TMP DP  RH WIND       PRES   REMARKS
STAUNTON*      CLEAR     65  63  95 CALM      30.07S
WAYNESBORO*    CLEAR     65  64  97 CALM      30.07S
HOT SPRINGS VA CLEAR     64  57  77 CALM      30.19S
LYNCHBURG      CLEAR     67  65  93 CALM      30.03S
DANVILLE       CLEAR     67  67 100 CALM      30.02S
SOUTH BOSTON*    N/A     68  66  94 CALM      30.01S VSB 3/4
MARTINSVILLE   CLEAR     66  65  97 CALM      30.07S FOG
ROANOKE        CLEAR     71  65  81 SE5       30.07S
BLACKSBURG     CLEAR     66  65  97 CALM      30.15R
DUBLIN*        CLEAR     66  65  94 W5        30.13S
MARION*        CLEAR     64  56  75 CALM      30.17S
HILLSVILLE*    CLEAR     64  60  86 CALM      30.14S
RICHLANDS*     FAIR      67  59  75 CALM      30.16R
WISE*          PTCLDY    68  64  88 CALM      30.16S
ABINGDON*      CLEAR     67  66  98 CALM      30.13R
$$

MDZ021>025-VAZ099-100-200700-
SOUTHERN MARYLAND AND THE DELMARVA PENINSULA

CITY           SKY/WX    TMP DP  RH WIND       PRES   REMARKS
PATUXENT RIVER CLEAR     72  70  93 CALM      29.98F
BAY BRIDGE APT PTCLDY    75  64  69 W3        29.99S
LEONARDTOWN    CLEAR     70  68  94 CALM      30.01S
DOVER          MOCLDY    72  64  78 W5        29.96S
GEORGETOWN     CLOUDY    73  69  87 SW3       29.99S
EASTON         PTCLDY   N/A N/A N/A CALM      30.02F
CAMBRIDGE      PTCLDY    70  68  94 CALM      29.98F
SALISBURY      CLEAR     73  71  93 CALM      29.98S
OCEAN CITY     CLEAR     72  69  90 NW3       29.99S
WALLOPS ISLAND CLEAR     76  69  79 SW7       29.98S
ACCOMACK*      CLEAR     72  70  92 SW3       29.98S
$$

NCZ012>017-030>032-200700-
NORTH CENTRAL AND EASTERN NORTH CAROLINA

CITY           SKY/WX    TMP DP  RH WIND       PRES   REMARKS
ROANOKE RAPIDS FAIR      72  72 100 S3        30.00S FOG
RALEIGH        PTCLDY    74  71  91 CALM      30.02R
ELIZABETH CITY CLEAR     75  75 100 CALM      29.99S
AHOSKIE*         N/A     72  72 100 CALM      30.00R FOG
EDENTON*       CLEAR     78  74  87 CALM      30.00S
CURRITUCK*     CLEAR     75  73  95 CALM      30.00R
KILL DEVIL HLS CLEAR     76  75  97 CALM      29.99R
MANTEO         CLEAR     78  75  92 W7        30.00S
CAPE HATTERAS  CLEAR     79  77  94 SW6       30.00S
TARBORO*       NOT AVBL
GOLDSBORO      CLEAR     74  74 100 CALM      30.00R
WASHINGTON     PTCLDY    74  73  96 SW5       30.01R
GREENVILLE     CLEAR     73  73 100 CALM      30.02S
NEW BERN       CLEAR     73  73 100 CALM      30.01S
WILMINGTON     PTCLDY    76  75  97 CALM      29.99S
$$

VAZ048-200700-
ELSEWHERE

CITY           SKY/WX    TMP DP  RH WIND       PRES   REMARKS
HARRISBURG PA  PTCLDY    66  62  87 NW7       30.00R
BALTIMORE      PTCLDY    68  66  93 CALM      29.99R
ANNAPOLIS      CLEAR     74  72  93 CALM      29.98S
ANDREWS AFB    PTCLDY    67  66  95 CALM      29.99S
PHILADELPHIA   PTCLDY    73  59  61 W8        29.97R
HENDERSON NC   CLEAR     67  65  93 CALM      30.02S
GREENSBORO     PTCLDY    73  68  84 CALM      30.03S
ROCKY MOUNT    CLEAR     73  73 100 CALM      30.00S FOG
$$

VAZ100-200700-
MARINE

STATION/POSITION TIME  TEMP    WIND        PRES    WAVE   SWELL
                       AIR SEA DIR/SP/G            HT/PER HT/PER
                 (UTC) (F)     (DEG/KT/KT) (MB)    (FT/S) (FT/S)
BRANDYWINE LGT   0542   77     310/  9/ 10 1015.1S
CAPE MAY NJ      0548   77 79  310/  7/ 11 1014.2R
LEWES DE         0548   76 79  280/  5/  6 1014.6F
15NM E FENWICK I 0450   79 78  220/  8/  8 1015.2    2/ 7   2/ 7
OCEAN-CITY-INLET 0548   75 78  320/  5/  7 1015.6R
WACHAPREAGUE VA  0548   73 85  260/  1/  2 1015.3S
THOMAS POINT MD  0500   77 81  290/  3/  4   N/A
GOOSES REEF MD   0550   77      CALM  /  2 1016.2R
COVE POINT MD    0548   76      40/  5/  6 1016.0F
SOLOMONS ISLAND  0548   75 82  350/  5/  7   N/A
BISHOPS HEAD MD  0548   77 83   30/  3/  4 1015.5F
PINEY POINT MD   0548           80/  3/  4   N/A
POTOMAC MD       0550   79      40/  6/ 10 1014.7R
CAMBRIDGE MD     0548   71 83              1016.0F
LEWISETTA VA     0548   78 83  360/  2/  3 1015.4R
RAPPAHANNOCK LGT 0548          190/  8/  9 1015.9R
STINGRAY PT      0550   81     250/  8/  8 1015.6R
YORK RVR RNG VA  0548   80     250/  5/  5 1015.7R
YORKTOWN VA      0548   77 82  220/  7/  7 1014.9S
JAMESTOWN VA     0550          210/  4/  6   N/A
DOMINION TERM VA 0548   79     260/  3/  4 1015.4R
KIPTOPEKE VA     0548      81   CALM  /  1   N/A
CHES BAY BRIDGE  0548   79 80  290/  5/  6 1015.2R
CAPE HENRY VA    0548   76      CALM  /  1   N/A
WILLOUBY STN VA  0536   78     240/  4/  5 1015.4R
S CRANEY ISL VA  0548   77     260/  1/  2 1015.2R
CAPE HENRY BUOY  0530      80                N/A     2/ 6
1ST LANDING BUOY 0550   80                 1015.2R
64NM E OF VA BCH 0450   79 79  240/  8/  8 1015.6    3/ 6   3/ 6
DUCK PIER NC     0548   79 70  250/  8/ 11 1015.0F
44100 DUCK FRF   0505      80                N/A     2/ 8
44056 DUCK FRF   0530      78                N/A     1/ 9
OREGON INLET NC  0536   80 77  240/  9/ 11 1015.5R
HATTERAS NC      0548   78 80  240/  4/  6 1015.7R
DIAMOND SHLS NC  0450   83 83  210/ 12/ 14 1015.5    3/ 9   2/ 9
CAPE LOOKOUT NC  0500   81     230/  3/  4 1015.6S
$$




USA.gov is the U.S. government's official web portal to all federal, state and local government web resources and services.